ONEWEB-0121, 47267

Orbit data source: Space-Track

ONEWEB-0121, 47267 is a payload satellite owned by One Web (UK) in LEO that was launched on Fri, 18 Dec 2020 UTC via a SOYUZ-2-1B launch vehicle from the Vostochny Cosmodrome (VOSTO). Payload-class satellites include a variety of spacecraft equipped with specific instruments for various scientific and technological missions. These include communications satellites like Starlink; space stations such as the ISS; scientific satellites like the Hubble; Earth observation satellites from companies like Planet Labs, Umbra, and HawkEye 360; GPS; miniature CubeSats for education and research; and military/defense satellites.

Loading next visibility...
Identifier
47267, 2020-100K
Orbit
LEO
Country
Flag of UKUK
Related business
Manufacturer
One Web
Mission
Operational Commercial Communications
Bus & Motor
ARROW, Unknown motor
Mass
148 kg wet, ~140 kg dry
Launch date (UTC)
2020-12-18 (6 years ago)
Launch vehicle
SOYUZ-2-1B
Launch site
Vostochny Cosmodrome (VOSTO)
Object type
Payload
Rocket body
Debris
Shape & HBR
Trap Box + 2 Pan, 6.7 m
Radar Cross Section
3.464 m², Large (>1 m²)

Expand to show TLE details & history
Last TLE update: 2 days ago

TLE from 2 days ago
0 ONEWEB-0121
1 47267U 20100K   26171.19022361  .00000259  00000-0  68390-3 0  9995
2 47267  87.8951 350.0593 0001700  83.2751 276.8571 13.12442816265039
Epoch: 2026-06-20T04:33Z
TLE epoch observation values (Epoch: 2026-06-20T04:33:55.319Z)
Latitude
-0.00004°
Longitude
13.1704°
Altitude
1,216.461 km
Speed
7.246 km/s
True Right ascension
23h 20m 14s
True Declination
0° 00' 00"
Sunlit
Object was in daylight at epoch
Visualization orbit readout
Latitude
Unknown
Longitude
Unknown
Altitude
Unknown
Speed
Unknown
Apparent Right ascension
Unknown
Apparent Declination
Unknown
Sunlit
N/A
Visualization observer readout
Local Sidereal Time
02:14:10
Azimuth
Unknown
Elevation
Unknown
Doppler factor
Unknown
Orbital elements
Apogee altitude
1,212.131 km
Perigee altitude
1,209.551 km
Semi-major axis
7,588.978 km
Eccentricity
0.00017
Inclination
87.8951°
RAAN
350.0593°
Arg. of periapsis
83.2751°
True anomaly
276.83776°
Mean anomaly
276.8571°
Eccentric anomaly
276.84743°
Mean motion
3.28298 °/min
Orbital period
109.66 mins
BSTAR
0.0006839
Loading maneuver chart data...
Computing Atmospheric mass density...
Loading historical data...
Loading historical data...
Loading historical data...
Loading historical data...
Loading historical data...
Loading historical data...
Loading historical data...

Documentation

Showing up to 5 results
|